Miscellaneous Local Product
Issued by NWS Hastings, NE

Home | Current Version | Previous Version | Graphics & Text | Print | Product List | Glossary On
Versions: 1 2 3 4 5 6 7 8 9 10 11 12 13 14 15 16 17 18 19 20 21 22 23 24 25 26 27 28 29 30 31 32 33 34 35 36 37 38 39 40 41 42 43 44 45 46 47 48 49 50
708
AXUS43 KGID 190302
MISGRI

GID CWA HOURLY WEATHER ROUNDUP
NATIONAL WEATHER SERVICE HASTINGS NE
1000 PM CDT WED OCT 18 2017

NOTE: "FAIR" INDICATES FEW OR NO CLOUDS BELOW 12,000 FEET WITH NO
SIGNIFICANT WEATHER AND/OR OBSTRUCTIONS TO VISIBILITY.

...SOUTH CENTRAL NEBRASKA...

CITY           SKY/WX    TMP DP  RH WIND       PRES   REMARKS
GRAND ISLAND   CLEAR     50  41  71 NW3       30.08R
HASTINGS       CLEAR     53  38  56 CALM      30.08S
KEARNEY        CLEAR     51  37  58 NW5       30.09R
ORD            CLEAR     45  35  68 CALM      30.08R
YORK           CLEAR     54  39  58 CALM      30.06R
AURORA         CLEAR     52  38  59 N5        30.06S
LEXINGTON      CLOUDY    45  38  76 NW6       30.11R
HOLDREGE       CLEAR     48  38  68 N3        30.09R
HEBRON         CLEAR     58  43  58 CALM      30.05R

...NEBRASKA PANHANDLE...

CITY           SKY/WX    TMP DP  RH WIND       PRES   REMARKS
CHADRON        CLOUDY    62  27  26 S23       30.01S
ALLIANCE       CLOUDY    42  30  62 S12       30.07S
SCOTTSBLUFF    CLEAR     45  30  55 E8        30.08R
SIDNEY         CLEAR     48  31  51 SE10      30.12S

...WESTERN AND NORTH CENTRAL NEBRASKA...

CITY           SKY/WX    TMP DP  RH WIND       PRES   REMARKS
VALENTINE      CLOUDY    46  31  55 S6        30.07S
AINSWORTH      CLEAR     42  36  77 S6        30.08S
ONEILL         CLOUDY    50  35  57 CALM      30.08S
BROKEN BOW     CLEAR     42  36  79 CALM      30.09S
IMPERIAL       CLEAR     47  31  53 SE7       30.11S
NORTH PLATTE   CLOUDY    46  35  65 CALM      30.10F
MCCOOK         CLEAR     52  35  52 E5        30.10F

...EASTERN NEBRASKA...

CITY           SKY/WX    TMP DP  RH WIND       PRES   REMARKS
NORFOLK        CLEAR     47  38  71 NW3       30.06R
SO SIOUX CITY  CLEAR     48  43  82 W6        30.05R
TEKAMAH        CLEAR     48  43  82 NW6       30.04R
ALBION         CLEAR     46  39  78 NW5       30.08R
OMAHA EPPLEY   CLEAR     57  46  66 NW5       30.03R
OFFUTT AFB     CLEAR     63  48  58 NE8       30.02R
MILLARD        CLEAR     62  47  59 CALM      30.03R
LINCOLN        CLEAR     56  43  61 CALM      30.05R
NEBRASKA CITY  CLEAR     60  49  68 SW5       30.03R
BEATRICE       CLEAR     55  49  79 CALM      30.03R
FALLS CITY     CLEAR     56  49  77 CALM      30.02R

...NORTHERN KANSAS...

CITY           SKY/WX    TMP DP  RH WIND       PRES   REMARKS
GOODLAND       CLEAR     49  34  56 E9        30.12R
HILL CITY      CLEAR     59  38  45 N10       30.09R
NORTON         CLEAR     48  32  53 N8        30.09R
PHILLIPSBURG   CLEAR     57  36  44 N5        30.07S
HAYS           CLEAR     52  40  63 N9        30.06R
RUSSELL        CLEAR     63  42  46 N7        30.03R
CONCORDIA      CLEAR     59  50  72 CALM      30.02S
SALINA         CLEAR     61  52  72 CALM      30.03R
TOPEKA         CLEAR     56  53  90 CALM      30.03R



USA.gov is the U.S. government's official web portal to all federal, state and local government web resources and services.